ZHUHAI-1 01 (CAS 4A) (42761 NORAD) Tracking and Keplerian Element Data

This shows tracking and keplerian element data for the satellite.

Feedback or suggestion? Click here.




ElementValue
Catalog42761
NameZHUHAI-1 01 (CAS 4A)
Epoch Orbit13342
Epoch Day319.2053588
Epoch Year2019
RAAN129.0006
Inclination43.0179
Eccentricity0.0010661
Argument of Perigee114.4968
Mean Anonmoly229.2102
Mean Motion15.09758018
Decay Rate7.4E-07
L11 42761U 17034D 19319.20535880 .00000074 00000-0 17981-4 0 9990
L22 42761 43.0179 129.0006 0010661 114.4968 229.2102 15.09758018133426

Live tracking and technical data element details for ZHUHAI-1 01 (CAS 4A) (NORAD 42761). ZHUHAI-1 01 (CAS 4A) can be tracked NOW for your location showing map with azimuth and elevation plus other details from your city location.

Track the satellite on the map from your city or location and see movement details for azimuth, elevation, latitude, longitude, range, height, and movement on the map or in text.







IsCatalogInMostPopularTable: catalog: 42761, numindb: 342
Update: records affected: 1



GetName: 42761 ZHUHAI-1 01 (CAS 4A)

Hit Count: updated at: Sun, 17 Nov 2019 18:48:54 GMT